Location: Stanford
(52.2833°N, 2.4333°W)
Time: 02:25:55
(UTC+00:00)

USA 229 DEB - Pass Details

Date: 22 January 2021
Orbit: 965 x 1247 km, 63.4° (Epoch: 26 February)

Event Time Altitude Azimuth Distance (km) Brightness Sun altitude
Rises 18:07:59 0° 310° (NW) 3,885 7.2 -13.3°
Reaches altitude 10° 18:10:38 10° 314° (NW) 2,967 6.5 -13.7°
Maximum altitude 18:17:40 60° 34° (NE) 1,313 3.9 -14.7°
Enters shadow 18:24:08 14° 112° (ESE) 2,810 5.4 -15.7°
